(54) Alexandra
ephemeris date magn radius delta ra dec elong phase
Today15 Jun 202614.03.097 AU3.544 AU09h23m+11°04'56.3°15.8°
Opposition1 May 202711.42.505 AU1.533 AU14h04m-33°28'160.4°7.7°
(54) Alexandra - 2026-06-15
astro.vanbuitenen.nl


 
-1 year
-1 month
-1 day
Now
+1 day
+1 month
+1 year

The interactive orbit chart above shows the body's path through the solar system and its position at the given date. Green and blue lines are shown perpendicular to the ecliptic plane: Green if the path is above the ecliptic plane, blue if it is below. (Left-click and drag to rotate the view; Right-click and drag to move the view; Use scroll wheel to zoom in our out.)

The orbital elements of Alexandra are:

            e (Eccentricity)                : 0.1991502
            a (Semimajor axis)              : 2.7102403
            i (Inclination)                 : 11.83626
            Ω (Longitude of ascending node) : 313.01339
            ω (Argument of perihelion)      : 346.35813
            M (Mean anomaly)                : 230.77822
            Epoch                           : 2026 Jun 09

            L (Longitude of perihelion)     : 299.65107
            B (Latitude of perihelion)      : -2.77288
            P (Orbital period in years)     : 4.46            
        

The light curve chart below shows the estimated development of the minor planet's magnitude.


The all-sky chart below shows the path of the minor planet over the same period as the light curve. The current position is marked yellow.





The following chart shows the path of the minor planet in the next few days. The field of view is optimized for (~10x50) binoculars and finderscopes.




Ephemerides:
Date       Time       RA (2000)    DEC (2000)    delta   radius  elong  phase   PA    magn
2026-06-15 00:00 UT   09 23 29.1   +11 04 19     3.544    3.097   56.3   15.8   111   14.0 
2026-06-15 20:33 UT   09 24 24.5   +10 59 09     3.553    3.096   55.7   15.7   111   14.0 
2026-06-16 00:00 UT   09 24 33.8   +10 58 16     3.554    3.096   55.6   15.7   111   14.0 
2026-06-17 00:00 UT   09 25 39.0   +10 52 10     3.565    3.095   54.9   15.6   111   14.0 
2026-06-18 00:00 UT   09 26 44.5   +10 45 60     3.575    3.094   54.3   15.5   111   14.0 
2026-06-19 00:00 UT   09 27 50.4   +10 39 46     3.585    3.092   53.6   15.3   111   14.0 
2026-06-20 00:00 UT   09 28 56.8   +10 33 30     3.595    3.091   52.9   15.2   111   14.0 
2026-06-21 00:00 UT   09 30 03.5   +10 27 09     3.605    3.090   52.3   15.1   112   14.0 
2026-06-22 00:00 UT   09 31 10.6   +10 20 46     3.615    3.088   51.6   15.0   112   14.0 
2026-06-23 00:00 UT   09 32 18.0   +10 14 19     3.624    3.087   51.0   14.8   112   14.0 
2026-06-24 00:00 UT   09 33 25.8   +10 07 48     3.634    3.086   50.3   14.7   112   14.0 
2026-06-25 00:00 UT   09 34 34.0   +10 01 14     3.643    3.085   49.7   14.6   112   14.0 
2026-06-26 00:00 UT   09 35 42.5   +09 54 37     3.653    3.083   49.0   14.4   112   14.0 
2026-06-27 00:00 UT   09 36 51.4   +09 47 57     3.662    3.082   48.4   14.3   113   14.0 
2026-06-28 00:00 UT   09 38 00.5   +09 41 13     3.671    3.081   47.7   14.1   113   14.0 
2026-06-29 00:00 UT   09 39 10.0   +09 34 26     3.680    3.079   47.1   14.0   113   14.0 
2026-06-30 00:00 UT   09 40 19.9   +09 27 36     3.689    3.078   46.5   13.9   113   14.0 
2026-07-01 00:00 UT   09 41 30.0   +09 20 43     3.697    3.077   45.8   13.7   113   14.0 
2026-07-02 00:00 UT   09 42 40.5   +09 13 46     3.706    3.075   45.2   13.6   113   14.0 
2026-07-03 00:00 UT   09 43 51.2   +09 06 46     3.714    3.074   44.6   13.4   114   14.0 
2026-07-04 00:00 UT   09 45 02.2   +08 59 42     3.723    3.073   43.9   13.3   114   14.0 
2026-07-05 00:00 UT   09 46 13.6   +08 52 36     3.731    3.071   43.3   13.1   114   14.0 
2026-07-06 00:00 UT   09 47 25.2   +08 45 26     3.739    3.070   42.7   13.0   114   14.0 
2026-07-07 00:00 UT   09 48 37.1   +08 38 13     3.747    3.068   42.0   12.8   114   14.0 
2026-07-08 00:00 UT   09 49 49.3   +08 30 57     3.755    3.067   41.4   12.7   115   14.0 
2026-07-09 00:00 UT   09 51 01.7   +08 23 38     3.763    3.066   40.8   12.5   115   14.0 
2026-07-10 00:00 UT   09 52 14.4   +08 16 15     3.770    3.064   40.2   12.4   115   14.0 
2026-07-11 00:00 UT   09 53 27.4   +08 08 49     3.778    3.063   39.5   12.2   115   14.0 
2026-07-12 00:00 UT   09 54 40.7   +08 01 20     3.785    3.061   38.9   12.0   115   14.0 


    Terminology:
            
    delta:  distance between minor planet and earth in AU
    radius: distance between minor planet and sun in AU
    magn:   magnitude (brightness) estimate    
    ra:     right ascension in hours (24h = 360deg)
    dec:    declination in degrees
    elong:  elongation in degrees (angle sun-earth-minor planet)    
    phase:  phase angle in degrees (angle sun-minor planet-earth)        
    AU:     Astronomical Unit (mean distance between earth and sun: 149597870.7 km
    

Orbital elements provided by the MPC (Minor Planet Center).
Calculations by a modified version of AAPlus, a C# implementation of the AA+ project by PJ Naughter from the algorithms presented in the book "Astronomical Algorithms" by Jean Meeus.
NGC2000 dso catalog and star labels from VizieR as provided by the Strasbourg astronomical Data Center.
Tycho2 catalog from the ESO archive.